ELEKTRON 1 DEB, 750

Orbit data source: Space-Track

ELEKTRON 1 DEB, 750 is space debris in LEO originally from a launch on Thu, 30 Jan 1964 UTC launched from the Tyuratam Missile And Space Complex (TTMTR). Debris objects in space refer to the collection of defunct objects orbiting the Earth. Examples of debris include non-operational satellites, rocket bodies, and fragments generated from explosions, collisions, or faulty payload assembly.

Loading next visibility...
ELEKTRON 1 DEB details
Identifier
750, 1964-006C
Orbit
LEO
Last TLE update12 hours ago
Origin
Flag of CISOKB-1 (CIS)
ManufacturerOKB-1
MissionSpacecraft
Bus & MotorADAPTER, Unknown motor
MassUnknown
Launch date (UTC)
1964-01-30 (61 years ago)
Launch vehicleUnknown
Launch site
Tyuratam Missile And Space Complex (TTMTR)
Object type
Payload
Rocket body
Debris
Shape & HBRUnknown
Radar Cross SectionMedium (>0.1 m² and <1 m²)

Expand to show TLE details & history

TLE from 12 hours ago
0 ELEKTRON 1 DEB
1   750U 64006C   24356.01803223  .00027195  00000-0  28642-2 0  9995
2   750  60.7538 215.0282 1485319 165.1679 199.8289 12.27682356779257
Epoch: 2024-12-21T00:25Z
Definitive object data (Epoch: 2024-12-21T00:25:57.984Z)
Latitude0.00002°
Longitude118.46139°
Altitude2,686.478 km
Speed6.145 km/s
True Right ascension14h 20m 06s
True Declination0° 00' 00"
Sunlit
Object was in daylight at TLE epoch
Visualization TLE readout
Latitude-22.66569°
Longitude103.85782°
Altitude2,713.87 km
Speed6.125 km/s
Apparent Right ascension15h 33m 00s
Apparent Declination-55° 17' 17"
Sunlit
Object is in daylight
Visualization observer readout
Local Sidereal Time11:00:02
Azimuth145.375° SSE
Elevation-21.442°
Doppler factor1
Orbital elements
Apogee altitude2,737.281 km
Perigee altitude379.61 km
Semi-major axis7,936.583 km
Eccentricity0.1485319
Inclination60.7538°
RAAN215.0282°
Arg. of periapsis165.1679°
True anomaly194.92347°
Mean anomaly199.8289°
Eccentric anomaly197.29839°
Mean motion3.06968 °/min
BSTAR0.0028642
Orbital period117.28 mins
Loading maneuver chart data...

ELEKTRON 1 DEB Visibility forecast

Observer location: undefined°, undefined

Span
Click to sort rows by Start time (UTC) header in descending order
Start Az.
Max El. time (UTC)
Max El. Az.
Max El.
End time (UTC)
End Az.
14 mins2024-12-21 14:12:19.054Z140.701° SSE2024-12-21 14:19:19.054Z111.146° ESE16.823°2024-12-21 14:26:19.054Z74.841° E
22 mins2024-12-21 16:08:19.054Z197.536° SSW2024-12-21 16:21:19.054Z125.02° SE42.156°2024-12-21 16:30:19.054Z45.233° ENE
18 mins2024-12-21 18:13:19.054Z248.948° W2024-12-21 18:24:19.054Z321.16° NNW35.789°2024-12-21 18:31:19.054Z26.041° NE
8 mins2024-12-21 20:23:19.054Z307.168° NW2024-12-21 20:27:19.054Z333.935° NNW16.584°2024-12-21 20:31:19.054Z9.479° NNE
6 mins2024-12-22 00:33:19.054Z340.139° N2024-12-22 00:36:19.054Z40.746° NE32.235°2024-12-22 00:39:19.054Z110.6° ESE
|